Toms River, NJ

11:32 PM EDT on October 23, 2019 (GMT -0400)
Miller

Weather History for KMJX - August, 2019

Change the Weather History Date:

Sunday, August 11, 2019

  Actual Average Record
Temperature  
Mean Temperature 68 °F -  
Max Temperature 84 °F 85 °F 96 °F (2016)
Min Temperature 54 °F 63 °F 45 °F (1972)
Cooling Degree Days 3    
Growing Degree Days 18 (Base 50)    
Moisture  
Dew Point 57 °F    
Average Humidity 55    
Maximum Humidity 100    
Minimum Humidity 36    
Precipitation  
Precipitation 0.01 in - - ()
Sea Level Pressure  
Sea Level Pressure 30.03 in    
Wind  
Wind Speed 3 mph (NW)    
Max Wind Speed 10 mph    
Max Gust Speed -    
Visibility 10 miles    
Events      
Averages and records for this station are not official NWS values.
T = Trace of Precipitation, MM = Missing Value Source: NWS Daily Summary

Daily Weather History Graph

Daily Weather History Graph

Search for Another Location

Airport or City:

Astronomy

Aug. 11, 2019 Rise Set
Actual Time 6:04 AM EDT 7:59 PM EDT
Civil Twilight 5:35 AM EDT 8:28 PM EDT
Nautical Twilight 4:59 AM EDT 9:04 PM EDT
Astronomical Twilight 4:21 AM EDT 9:42 PM EDT
Moon 5:35 PM EDT (8/11) 2:23 AM EDT (8/11)
Length of Visible Light 14h 53m
Length of Day
13h 54m
Waxing Gibbous, 87% of the Moon is Illuminated
Aug 11
Waxing Gibbous
Aug 15
Full
Aug 23
Last Quarter
Aug 30
New
Sep 5
First Quarter

Hourly Weather History & Observations

Time (EDT) Temp. Heat Index Dew Point Humidity Pressure Visibility Wind Dir Wind Speed Gust Speed Precip Events Conditions
12:56 AM 60.1 °F - - N/A% 29.98 in 10.0 mi Calm Calm - N/A   Mostly Cloudy
1:56 AM 57.9 °F - - N/A% 29.97 in 10.0 mi Calm Calm - N/A   Clear
2:56 AM 57.0 °F - - N/A% 29.98 in 10.0 mi Calm Calm - N/A   Mostly Cloudy
3:56 AM 55.9 °F - - N/A% 29.99 in 10.0 mi Calm Calm - N/A   Clear
4:56 AM 54.0 °F - - N/A% 29.99 in 10.0 mi Calm Calm - N/A   Clear
5:56 AM 54.0 °F - - N/A% 30.02 in 10.0 mi Calm Calm - N/A   Clear
6:56 AM 55.0 °F - - N/A% 30.04 in 10.0 mi SW 3.5 mph - N/A   Clear
7:56 AM 66.9 °F - 64.0 °F 90% 30.06 in 10.0 mi NW 3.5 mph - N/A   Clear
8:56 AM 71.1 °F - 59.0 °F 66% 30.06 in 10.0 mi NNW 6.9 mph - N/A   Clear
9:56 AM 75.0 °F - 55.9 °F 51% 30.06 in 10.0 mi NNW 5.8 mph - N/A   Clear
10:56 AM 75.9 °F - 54.0 °F 46% 30.07 in 10.0 mi Variable 3.5 mph - 0.01 in   Clear
11:56 AM 78.1 °F - 55.0 °F 45% 30.07 in 10.0 mi North 4.6 mph - N/A   Partly Cloudy
12:56 PM 80.1 °F 80.1 °F 55.0 °F 42% 30.06 in 10.0 mi NW 6.9 mph - N/A   Scattered Clouds
1:56 PM 82.0 °F 81.4 °F 55.0 °F 39% 30.05 in 10.0 mi West 10.4 mph - N/A   Scattered Clouds
2:56 PM 82.9 °F 81.9 °F 54.0 °F 37% 30.03 in 10.0 mi NW 9.2 mph - N/A   Partly Cloudy
3:56 PM 82.9 °F 81.9 °F 54.0 °F 37% 30.02 in 10.0 mi West 6.9 mph - N/A   Partly Cloudy
4:56 PM 82.9 °F 81.8 °F 53.1 °F 36% 30.01 in 10.0 mi NW 10.4 mph - N/A   Clear
5:56 PM 82.0 °F 81.4 °F 55.0 °F 39% 30.01 in 10.0 mi NW 9.2 mph - N/A   Partly Cloudy
6:56 PM 79.0 °F - 55.0 °F 44% 30.01 in 10.0 mi NW 6.9 mph - N/A   Clear
7:56 PM 72.0 °F - 62.1 °F 71% 30.01 in 10.0 mi Calm Calm - N/A   Clear
8:56 PM 66.0 °F - 61.0 °F 84% 30.03 in 10.0 mi Calm Calm - N/A   Clear
9:56 PM 63.0 °F - 63.0 °F 100% 30.04 in 10.0 mi Calm Calm - N/A   Clear
10:56 PM 61.0 °F - - N/A% 30.04 in 10.0 mi Calm Calm - N/A   Clear
11:56 PM 59.0 °F - - N/A% 30.04 in 10.0 mi Calm Calm - N/A   Clear